Location: Farster Bauernschaft
(52.4667°N, 9.8333°E)
Time: 00:01:28
(UTC+00:00)

Daily predictions for brighter satellites

Satellite Brightness Start Highest point End
(mag) Time Altitude Azimuth Time Altitude Azimuth Time Altitude Azimuth
SL-4 R/B 1.8 00:00:06 10° WSW 00:04:09 75° S 00:08:04 10° E
Cosmos 1328 3.7 00:02:26 24° SSW 00:04:27 62° WNW 00:08:02 10° N
OPS 8737 4.1 00:01:29 10° NW 00:04:27 55° SW 00:06:00 25° SSE
Cosmos 2082 Rocket 3.8 00:02:37 10° NNW 00:07:52 36° NE 00:13:06 10° ESE
Cosmos 2278 Rocket 3.8 00:11:06 11° SSE 00:15:18 24° ESE 00:19:42 10° NE
SJ 16-02 1.6 00:15:31 18° SW 00:18:36 63° WNW 00:22:55 10° NNE
CZ-2C R/B 2.6 00:14:32 16° SSE 00:18:48 84° WSW 00:24:11 10° NNW
USA 229 DEB 4.0 00:11:52 10° NW 00:19:12 90° NE 00:27:18 10° SE
USA 229 4.0 00:11:59 10° NW 00:19:18 89° NE 00:27:24 10° SE
Cosmos 2151 Rocket 3.7 00:16:32 10° N 00:20:58 73° ENE 00:24:38 15° SSE
CZ-2D R/B 4.4 00:18:43 10° NE 00:21:46 15° E 00:24:46 10° ESE
Cosmos 1943 Rocket 3.8 00:17:38 10° SSE 00:21:50 23° ESE 00:26:04 10° NE
Cosmos 371 Rocket 3.4 00:19:30 20° SSW 00:22:50 72° ESE 00:27:41 10° NNE
Okean 2 Rocket 3.4 00:19:26 10° N 00:23:54 65° ENE 00:27:50 13° SSE
USA 307 2.5 00:20:42 10° WSW 00:24:30 79° SSE 00:28:29 10° ENE
Cosmos 1741 Rocket 4.1 00:26:35 19° SSW 00:30:29 78° ESE 00:35:50 10° NNE
Okean 1 Rocket 3.5 00:29:36 10° N 00:34:03 63° ENE 00:38:18 11° SSE
Cosmos 375 4.4 00:31:15 10° NW 00:35:51 63° SW 00:39:41 10° SSE
Cosmos 1025 Rocket 3.8 00:37:03 14° SSE 00:40:30 45° E 00:44:34 10° NNE
Cosmos 1844 Rocket 4.2 00:38:11 10° WSW 00:43:14 32° NW 00:48:19 10° NNE
Nadezhda 4 Rocket 4.1 00:38:07 15° S 00:43:22 77° E 00:49:40 10° NNE
Cosmos 1378 Rocket 3.5 00:40:25 18° SSW 00:43:37 84° WNW 00:48:03 10° N
USA 234 3.3 00:37:59 10° ENE 00:44:31 71° SSE 00:51:03 10° SW
In-Cosmos 22 Rocket 4.3 00:44:33 16° S 00:49:12 82° E 00:55:00 10° NNE
Cosmos 1340 Rocket 2.8 00:45:23 10° NNW 00:49:12 64° W 00:52:07 16° S
ADEOS II 4.3 00:49:26 10° NE 00:53:04 19° E 00:56:40 10° SE
USA 59 Rocket 1.9 00:51:45 10° W 00:53:44 13° WSW 00:54:17 13° SW
Cosmos 158 Rocket 3.9 00:48:53 10° NNW 00:54:02 86° WSW 00:59:01 10° SSE
Cosmos 1606 4.4 00:52:51 10° NW 00:54:29 14° W 00:55:42 11° WSW
ATLAS 3B R/B 3.2 00:54:33 10° NW 01:02:10 54° WSW 01:09:29 10° SSE
Nimbus 7 Rocket 4.5 00:57:12 10° NNE 01:03:08 81° WNW 01:08:22 14° SSW
Cosmos 304 Rocket 4.2 01:00:52 14° SW 01:04:54 56° WNW 01:09:36 10° NNE
MOZ.5/SAFIR/RUBIN 5/SL-8 3.7 01:03:36 10° SSE 01:08:12 89° ENE 01:12:49 10° NNW
H-2A R/B 3.6 01:06:39 15° SW 01:08:38 22° W 01:11:33 10° NW
SOZ 4.1 01:07:03 10° WSW 01:09:06 76° S 01:12:12 10° E
FENGYUN 3A 4.4 01:05:25 10° NNE 01:10:36 46° E 01:15:45 10° S
Cosmos 2026 Rocket 4.2 01:06:30 10° S 01:12:46 72° E 01:18:58 10° NNE
H-2A R/B 2.6 01:09:25 10° NNE 01:13:17 46° E 01:17:08 10° S
Cosmos 1869 4.0 01:12:37 10° NNW 01:15:59 33° W 01:18:36 15° SSW
IDEFIX/ARIANE 42P 2.7 01:11:55 10° NNE 01:17:12 80° ESE 01:22:10 11° SSW
USA 305 0.6 01:15:23 10° WNW 01:17:50 68° SSW 01:19:22 10° ESE
Cosmos 1455 Rocket 3.1 01:15:52 10° N 01:20:16 85° E 01:24:36 10° S
ATLAS 2AS CENTAUR R/B 3.2 01:13:42 10° WSW 01:20:44 61° NW 01:27:34 10° NE
Cosmos 220 Rocket 4.3 01:17:19 10° NNW 01:21:27 65° ENE 01:25:36 10° SE
Cosmos 1833 Rocket 3.7 01:16:55 10° NW 01:21:34 27° WSW 01:25:45 12° SSW
Cosmos 2221 Rocket 3.8 01:21:46 13° SSW 01:25:33 59° WNW 01:29:57 10° N
Cosmos 1812 2.1 01:24:13 10° NNW 01:27:24 76° W 01:30:34 10° S
MSX 3.9 01:22:55 10° NNE 01:28:42 88° ESE 01:34:25 10° SSW
NPP 3.7 01:27:10 10° NNE 01:32:37 89° ESE 01:38:01 10° SSW
CZ-2C R/B 4.1 01:28:29 10° N 01:33:34 39° WNW 01:38:23 10° SW
Meteor 1-11 4.4 01:31:27 11° SSW 01:37:03 74° WNW 01:42:54 10° N
ATLAS 5 CENTAUR R/B 3.2 01:35:52 10° SSE 01:37:26 13° ESE 01:39:03 10° E
Cosmos 2228 3.5 01:37:20 10° N 01:41:27 60° ENE 01:45:31 10° SSE
SL-4 R/B 1.8 01:38:08 10° W 01:42:06 70° SSW 01:45:52 10° ESE
Cosmos 332 Rocket 3.9 01:37:42 11° SSW 01:42:21 74° WNW 01:47:12 10° NNE
COSMOS 2406 3.3 01:37:00 10° NNW 01:42:48 86° ENE 01:48:33 10° SSE
Resurs 1-4 Rocket 2.4 01:43:01 10° NNE 01:48:17 69° ESE 01:53:32 10° S
Cosmos 1666 2.8 01:50:14 10° SSE 01:51:36 22° E 01:53:00 10° NE
Cosmos 2082 Rocket 2.3 01:46:39 10° NW 01:52:14 57° WSW 01:57:49 10° S
USA 307 3.0 01:50:47 10° W 01:54:45 68° N 01:58:32 10° E
Meteor 1-27 4.4 01:49:42 10° NNW 01:55:34 86° WSW 02:01:25 10° S
SJ 16-02 3.8 01:55:41 10° WNW 01:57:42 13° NW 01:59:43 10° NNW
Cosmos 2278 Rocket 2.3 01:53:10 10° SW 01:58:49 74° WNW 02:04:31 10° NNE
Cosmos 2098 Rocket 2.6 01:55:30 10° NNW 01:59:27 68° W 02:02:46 10° S
CZ-2C R/B 4.4 01:56:56 10° WSW 01:59:54 15° W 02:02:54 10° NW
Timation 2 Rocket 4.4 01:54:25 10° SW 02:00:15 52° NW 02:06:09 10° NNE
CZ-2D R/B 2.3 01:57:09 10° NNE 02:02:38 81° ESE 02:07:59 10° SSW
Cosmos 1544 Rocket 3.7 01:59:54 10° N 02:04:13 79° ENE 02:08:31 10° SSE
Cosmos 1943 Rocket 2.3 01:59:31 10° SW 02:05:01 73° WNW 02:10:34 10° NNE
ALOS 2.7 02:00:31 10° NNE 02:05:03 60° ESE 02:09:34 10° S
SL-16 R/B 3.0 02:00:05 10° SSE 02:06:14 69° ENE 02:12:27 10° NNW
